| time (UTC) | temp F | wind direction | speed MPH | gust MPH | rain 1hr in | rain 24hr in | rain mn in | humidity % | barometer mb |
| 20260905011540 | 60 | 173 | 0.0 | 0.0 | 0.00 | 0.01 | 0.01 | 63 | 1018.7 |
| 20260905010042 | 59 | 180 | 0.0 | 0.0 | 0.00 | 0.01 | 0.01 | 65 | 1018.7 |
| 20260905004540 | 59 | 156 | 0.0 | 0.0 | 0.00 | 0.02 | 0.01 | 63 | 1018.7 |
| 20260905003039 | 59 | 152 | 0.0 | 0.0 | 0.00 | 0.02 | 0.01 | 65 | 1018.5 |
| 20260905001539 | 59 | 137 | 0.0 | 0.0 | 0.00 | 0.02 | 0.01 | 63 | 1018.4 |
| 20260905000041 | 59 | 179 | 0.0 | 0.0 | 0.00 | 0.02 | 0.01 | 61 | 1018.4 |
| 20260904234544 | 59 | 207 | 0.0 | 1.0 | 0.00 | 0.05 | 0.01 | 61 | 1018.3 |
| 20260904233037 | 59 | 128 | 0.0 | 0.0 | 0.00 | 0.05 | 0.01 | 63 | 1018.3 |
| 20260904231536 | 59 | 197 | 0.0 | 0.0 | 0.00 | 0.05 | 0.01 | 62 | 1018.5 |
| 20260904230039 | 59 | 241 | 0.0 | 0.0 | 0.00 | 0.05 | 0.01 | 61 | 1018.6 |
| 20260904224541 | 60 | 170 | 0.0 | 0.0 | 0.00 | 0.05 | 0.01 | 61 | 1018.4 |
| 20260904223035 | 61 | 137 | 0.0 | 0.0 | 0.00 | 0.05 | 0.01 | 62 | 1018.4 |
| 20260904221536 | 61 | 207 | 0.0 | 0.0 | 0.00 | 0.05 | 0.01 | 61 | 1018.4 |
| 20260904220034 | 62 | 186 | 0.0 | 0.0 | 0.00 | 0.05 | 0.01 | 57 | 1018.4 |
| 20260904214533 | 63 | 229 | 0.0 | 1.0 | 0.00 | 0.06 | 0.01 | 57 | 1018.5 |
| 20260904213033 | 63 | 183 | 0.0 | 0.0 | 0.00 | 0.06 | 0.01 | 59 | 1018.3 |
| 20260904211533 | 63 | 295 | 0.0 | 2.0 | 0.00 | 0.06 | 0.01 | 57 | 1018.4 |
| 20260904210029 | 63 | 197 | 0.0 | 0.0 | 0.00 | 0.06 | 0.01 | 60 | 1018.4 |
| 20260904204527 | 61 | 28 | 0.0 | 0.0 | 0.00 | 0.09 | 0.01 | 64 | 1018.4 |
| 20260904203033 | 61 | 228 | 0.0 | 0.0 | 0.00 | 0.09 | 0.01 | 61 | 1018.5 |
| 20260904201524 | 61 | 258 | 0.0 | 0.0 | 0.00 | 0.09 | 0.01 | 65 | 1018.5 |
| 20260904200023 | 60 | 244 | 0.0 | 0.0 | 0.00 | 0.09 | 0.01 | 65 | 1018.7 |
| 20260904194521 | 60 | 223 | 0.0 | 0.0 | 0.00 | 0.11 | 0.01 | 69 | 1018.8 |
| 20260904193015 | 58 | 158 | 0.0 | 0.0 | 0.00 | 0.11 | 0.01 | 75 | 1018.8 |
| 20260904191518 | 56 | 174 | 0.0 | 0.0 | 0.00 | 0.11 | 0.01 | 79 | 1018.9 |
| 20260904190014 | 54 | 227 | 0.0 | 0.0 | 0.00 | 0.11 | 0.01 | 82 | 1019.1 |
| 20260904184505 | 53 | 212 | 0.0 | 1.0 | 0.00 | 0.13 | 0.01 | 85 | 1019.2 |
| 20260904183003 | 52 | 195 | 0.0 | 0.0 | 0.00 | 0.13 | 0.01 | 86 | 1019.2 |
| 20260904181558 | 52 | 202 | 0.0 | 0.0 | 0.00 | 0.13 | 0.01 | 87 | 1019.3 |
| 20260904180056 | 51 | 136 | 0.0 | 0.0 | 0.00 | 0.13 | 0.01 | 89 | 1019.1 |
| 20260904174552 | 50 | 202 | 0.0 | 1.0 | 0.00 | 0.15 | 0.01 | 91 | 1019.1 |
| 20260904173046 | 49 | 159 | 0.0 | 1.0 | 0.00 | 0.15 | 0.01 | 93 | 1018.9 |
| 20260904171551 | 48 | 202 | 0.0 | 0.0 | 0.00 | 0.15 | 0.01 | 95 | 1018.8 |
| 20260904170040 | 47 | 237 | 0.0 | 0.0 | 0.00 | 0.15 | 0.01 | 95 | 1018.7 |
| 20260904164536 | 46 | 141 | 0.0 | 0.0 | 0.00 | 0.15 | 0.01 | 95 | 1018.5 |
| 20260904163033 | 45 | 196 | 0.0 | 1.0 | 0.00 | 0.15 | 0.01 | 95 | 1018.6 |
| 20260904161531 | 45 | 219 | 0.0 | 0.0 | 0.00 | 0.15 | 0.01 | 95 | 1018.6 |
| 20260904160044 | 44 | 168 | 0.0 | 0.0 | 0.00 | 0.15 | 0.01 | 95 | 1018.7 |
| 20260904154533 | 43 | 185 | 0.0 | 0.0 | 0.00 | 0.17 | 0.01 | 95 | 1018.7 |
| 20260904153024 | 42 | 143 | 0.0 | 0.0 | 0.00 | 0.17 | 0.01 | 95 | 1018.6 |
| 20260904151527 | 40 | 91 | 0.0 | 0.0 | 0.00 | 0.17 | 0.01 | 94 | 1018.6 |
| 20260904150037 | 39 | 91 | 0.0 | 0.0 | 0.00 | 0.17 | 0.01 | 94 | 1018.5 |
| 20260904144515 | 39 | 91 | 0.0 | 0.0 | 0.00 | 0.19 | 0.01 | 94 | 1018.2 |
| 20260904143012 | 39 | 91 | 0.0 | 0.0 | 0.00 | 0.19 | 0.01 | 94 | 1017.9 |
| 20260904141520 | 39 | 91 | 0.0 | 0.0 | 0.00 | 0.19 | 0.01 | 94 | 1017.6 |
| 20260904140012 | 39 | 91 | 0.0 | 0.0 | 0.00 | 0.19 | 0.01 | 94 | 1017.5 |
| 20260904134509 | 39 | 91 | 0.0 | 0.0 | 0.00 | 0.20 | 0.01 | 94 | 1017.5 |
| 20260904133008 | 39 | 91 | 0.0 | 0.0 | 0.00 | 0.20 | 0.01 | 94 | 1017.4 |
| 20260904131506 | 39 | 91 | 0.0 | 0.0 | 0.00 | 0.20 | 0.01 | 94 | 1017.5 |
| 20260904130005 | 39 | 91 | 0.0 | 0.0 | 0.00 | 0.20 | 0.01 | 94 | 1017.3 |
| 20260904124504 | 39 | 91 | 0.0 | 0.0 | 0.00 | 0.21 | 0.01 | 94 | 1017.3 |
| 20260904123003 | 39 | 91 | 0.0 | 0.0 | 0.00 | 0.21 | 0.01 | 94 | 1017.2 |
| 20260904121501 | 39 | 91 | 0.0 | 0.0 | 0.00 | 0.21 | 0.01 | 94 | 1017.2 |
| 20260904120059 | 39 | 91 | 0.0 | 0.0 | 0.00 | 0.21 | 0.01 | 94 | 1017.0 |
| 20260904114559 | 40 | 91 | 0.0 | 0.0 | 0.00 | 0.21 | 0.01 | 94 | 1017.0 |
| 20260904113056 | 40 | 91 | 0.0 | 0.0 | 0.00 | 0.21 | 0.01 | 94 | 1016.8 |
| 20260904111553 | 40 | 91 | 0.0 | 0.0 | 0.00 | 0.21 | 0.01 | 94 | 1016.8 |
| 20260904110053 | 41 | 91 | 0.0 | 0.0 | 0.00 | 0.21 | 0.01 | 94 | 1016.6 |
| 20260904104549 | 41 | 91 | 0.0 | 0.0 | 0.01 | 0.21 | 0.01 | 94 | 1016.5 |
| 20260904103049 | 41 | 91 | 0.0 | 0.0 | 0.01 | 0.21 | 0.01 | 94 | 1016.3 |
| 20260904101549 | 41 | 91 | 0.0 | 0.0 | 0.01 | 0.21 | 0.01 | 94 | 1016.3 |
| 20260904100047 | 41 | 91 | 0.0 | 0.0 | 0.01 | 0.21 | 0.01 | 94 | 1016.3 |
| 20260904094546 | 41 | 91 | 0.0 | 0.0 | 0.00 | 0.20 | 0.00 | 94 | 1016.4 |
| 20260904093049 | 41 | 91 | 0.0 | 0.0 | 0.00 | 0.20 | 0.00 | 94 | 1016.3 |
| 20260904091544 | 41 | 91 | 0.0 | 0.0 | 0.00 | 0.20 | 0.00 | 93 | 1016.4 |
| 20260904090043 | 41 | 91 | 0.0 | 0.0 | 0.00 | 0.20 | 0.00 | 93 | 1016.2 |
| 20260904084541 | 42 | 91 | 0.0 | 0.0 | 0.00 | 0.20 | 0.00 | 93 | 1016.2 |
| 20260904083040 | 42 | 91 | 0.0 | 0.0 | 0.00 | 0.20 | 0.00 | 93 | 1016.3 |
| 20260904081538 | 42 | 91 | 0.0 | 0.0 | 0.00 | 0.20 | 0.00 | 93 | 1016.3 |
| 20260904080036 | 43 | 91 | 0.0 | 0.0 | 0.00 | 0.20 | 0.00 | 93 | 1016.2 |
| 20260904074537 | 43 | 91 | 0.0 | 0.0 | 0.00 | 0.20 | 0.00 | 93 | 1016.1 |
| 20260904073035 | 43 | 91 | 0.0 | 0.0 | 0.00 | 0.20 | 0.00 | 93 | 1016.1 |
| 20260904071531 | 44 | 91 | 0.0 | 0.0 | 0.00 | 0.20 | 0.00 | 93 | 1016.0 |
| 20260904070029 | 44 | 91 | 0.0 | 0.0 | 0.00 | 0.20 | 0.00 | 93 | 1016.0 |
| 20260904064527 | 44 | 91 | 0.0 | 0.0 | 0.00 | 0.20 | 0.20 | 93 | 1015.8 |
| 20260904063034 | 45 | 91 | 0.0 | 0.0 | 0.00 | 0.20 | 0.20 | 93 | 1015.7 |
| 20260904061528 | 45 | 91 | 0.0 | 0.0 | 0.00 | 0.20 | 0.20 | 93 | 1015.7 |
| 20260904060025 | 45 | 91 | 0.0 | 0.0 | 0.00 | 0.20 | 0.20 | 93 | 1015.6 |
| 20260904054525 | 45 | 91 | 0.0 | 0.0 | 0.00 | 0.20 | 0.20 | 93 | 1015.7 |
| 20260904053027 | 45 | 91 | 0.0 | 0.0 | 0.00 | 0.20 | 0.20 | 93 | 1015.7 |
| 20260904051549 | 45 | 91 | 0.0 | 0.0 | 0.00 | 0.20 | 0.20 | 93 | 1015.5 |
| 20260904050021 | 45 | 91 | 0.0 | 0.0 | 0.00 | 0.20 | 0.20 | 93 | 1015.6 |
| 20260904044519 | 46 | 91 | 0.0 | 0.0 | 0.00 | 0.20 | 0.20 | 93 | 1015.5 |
| 20260904043018 | 46 | 91 | 0.0 | 0.0 | 0.00 | 0.20 | 0.20 | 92 | 1015.4 |
| 20260904041520 | 46 | 91 | 0.0 | 0.0 | 0.00 | 0.20 | 0.20 | 92 | 1015.3 |
| 20260904040022 | 47 | 91 | 0.0 | 0.0 | 0.00 | 0.20 | 0.20 | 92 | 1015.2 |
| 20260904034514 | 47 | 91 | 0.0 | 0.0 | 0.00 | 0.20 | 0.20 | 92 | 1015.2 |
| 20260904033012 | 48 | 91 | 0.0 | 0.0 | 0.00 | 0.20 | 0.20 | 92 | 1015.1 |
| 20260904031510 | 49 | 91 | 0.0 | 0.0 | 0.00 | 0.20 | 0.20 | 92 | 1014.7 |
| 20260904030008 | 50 | 91 | 0.0 | 0.0 | 0.00 | 0.20 | 0.20 | 92 | 1014.7 |
| 20260904024509 | 50 | 91 | 0.0 | 0.0 | 0.00 | 0.22 | 0.20 | 92 | 1014.8 |
| 20260904023008 | 50 | 91 | 0.0 | 0.0 | 0.00 | 0.22 | 0.20 | 92 | 1014.9 |
| 20260904021507 | 50 | 91 | 0.0 | 0.0 | 0.00 | 0.22 | 0.20 | 92 | 1014.8 |
| 20260904020007 | 51 | 91 | 0.0 | 0.0 | 0.00 | 0.22 | 0.20 | 92 | 1014.7 |
| 20260904014507 | 51 | 91 | 0.0 | 0.0 | 0.00 | 0.23 | 0.20 | 92 | 1014.7 |
| 20260904013007 | 51 | 87 | 0.0 | 0.0 | 0.00 | 0.23 | 0.20 | 92 | 1014.6 |